Owatonna, MN

5:51 PM CDT on October 16, 2017 (GMT -0500)
Owatonna Degner Regional

Weather History for KOWA - November, 2013

Change the Weather History Date:

Thursday, November 14, 2013

  Actual Average Record
Temperature  
Mean Temperature 39 °F -  
Max Temperature 46 °F 40 °F 70 °F (1990)
Min Temperature 32 °F 25 °F 3 °F (2014)
Degree Days  
Heating Degree Days 26    
Moisture  
Dew Point 32 °F    
Average Humidity 80    
Maximum Humidity 93    
Minimum Humidity 65    
Precipitation  
Precipitation 0.00 in - - ()
Sea Level Pressure  
Sea Level Pressure 29.84 in    
Wind  
Wind Speed 9 mph (SSW)    
Max Wind Speed 15 mph    
Max Gust Speed -    
Visibility 10 miles    
Events Rain    
Averages and records for this station are not official NWS values.
T = Trace of Precipitation, MM = Missing Value Source: NWS Daily Summary

Daily Weather History Graph

Daily Weather History Graph

Search for Another Location

Airport or City:

Trip Planner

Search our weather history database for the weather conditions in past years. The results will help you decide how hot, cold, wet, or windy it might be!

Date:

Astronomy

Nov. 14, 2013 Rise Set
Actual Time 7:07 AM CST 4:47 PM CST
Civil Twilight 6:36 AM CST 5:18 PM CST
Nautical Twilight 6:01 AM CST 5:53 PM CST
Astronomical Twilight 5:27 AM CST 6:27 PM CST
Moon 3:13 PM CST (11/14) 3:57 AM CST (11/14)
Length of Visible Light 10h 42m
Length of Day
9h 39m
Waxing Gibbous, 92% of the Moon is Illuminated
Nov 14
Waxing Gibbous
Nov 17
Full
Nov 25
Last Quarter
Dec 2
New
Dec 9
First Quarter

Hourly Weather History & Observations

Time (CST) Temp. Windchill Dew Point Humidity Pressure Visibility Wind Dir Wind Speed Gust Speed Precip Events Conditions
12:14 AM 37.4 °F 29.3 °F 26.6 °F 65% 29.91 in 10.0 mi SSW 12.7 mph - N/A   Clear
12:34 AM 35.6 °F 26.6 °F 26.6 °F 70% 29.90 in 10.0 mi SSW 13.8 mph - N/A   Clear
12:54 AM 35.6 °F 27.1 °F 26.6 °F 70% 29.89 in 10.0 mi SSW 12.7 mph - N/A   Clear
1:14 AM 35.6 °F 26.2 °F 26.6 °F 70% 29.89 in 10.0 mi SSW 15.0 mph - N/A   Clear
1:34 AM 35.6 °F 27.5 °F 26.6 °F 70% 29.88 in 10.0 mi SSW 11.5 mph - N/A   Clear
1:54 AM 35.6 °F 28.0 °F 26.6 °F 70% 29.88 in 10.0 mi SSW 10.4 mph - N/A   Clear
2:14 AM 35.6 °F 27.1 °F 26.6 °F 70% 29.88 in 10.0 mi SSW 12.7 mph - N/A   Clear
2:34 AM 35.6 °F 28.0 °F 26.6 °F 70% 29.88 in 10.0 mi South 10.4 mph - N/A   Clear
2:54 AM 33.8 °F 25.8 °F 26.6 °F 75% 29.88 in 10.0 mi SSW 10.4 mph - N/A   Clear
3:14 AM 33.8 °F 25.8 °F 26.6 °F 75% 29.88 in 10.0 mi SSW 10.4 mph - N/A   Clear
3:34 AM 33.8 °F 27.0 °F 26.6 °F 75% 29.87 in 10.0 mi South 8.1 mph - N/A   Clear
3:54 AM 33.8 °F 27.0 °F 26.6 °F 75% 29.87 in 10.0 mi SSW 8.1 mph - N/A   Clear
4:14 AM 33.8 °F 28.6 °F 26.6 °F 75% 29.87 in 10.0 mi SSW 5.8 mph - N/A   Clear
4:34 AM 32.0 °F 24.8 °F 26.6 °F 80% 29.86 in 10.0 mi South 8.1 mph - N/A   Clear
4:54 AM 33.8 °F 26.4 °F 26.6 °F 75% 29.85 in 10.0 mi South 9.2 mph - N/A   Clear
5:14 AM 33.8 °F 25.8 °F 26.6 °F 75% 29.85 in 10.0 mi South 10.4 mph - N/A   Clear
5:34 AM 33.8 °F 25.8 °F 26.6 °F 75% 29.86 in 10.0 mi SSW 10.4 mph - N/A   Clear
5:54 AM 33.8 °F 26.4 °F 26.6 °F 75% 29.86 in 10.0 mi SSW 9.2 mph - N/A   Clear
6:14 AM 33.8 °F 27.0 °F 26.6 °F 75% 29.86 in 10.0 mi SSW 8.1 mph - N/A   Clear
6:34 AM 33.8 °F 26.4 °F 28.4 °F 81% 29.85 in 10.0 mi SSW 9.2 mph - N/A   Clear
6:54 AM 33.8 °F 27.7 °F 28.4 °F 81% 29.85 in 10.0 mi SSW 6.9 mph - N/A   Clear
7:14 AM 33.8 °F 30.8 °F 28.4 °F 81% 29.86 in 10.0 mi SSW 3.5 mph - N/A   Clear
7:34 AM 33.8 °F 28.6 °F 28.4 °F 81% 29.85 in 10.0 mi SSW 5.8 mph - N/A   Scattered Clouds
7:54 AM 33.8 °F 27.7 °F 28.4 °F 81% 29.85 in 10.0 mi SSW 6.9 mph - N/A   Scattered Clouds
8:14 AM 35.6 °F 29.2 °F 28.4 °F 75% 29.87 in 10.0 mi SW 8.1 mph - N/A   Scattered Clouds
8:34 AM 35.6 °F 28.0 °F 30.2 °F 81% 29.87 in 10.0 mi SSW 10.4 mph - N/A   Drizzle
8:54 AM 35.6 °F 28.0 °F 30.2 °F 81% 29.88 in 10.0 mi SW 10.4 mph - N/A Rain Light Rain
9:14 AM 35.6 °F 28.0 °F 30.2 °F 81% 29.87 in 10.0 mi SW 10.4 mph - N/A Rain Light Rain
9:34 AM 37.4 °F 30.8 °F 30.2 °F 75% 29.88 in 10.0 mi West 9.2 mph - N/A   Drizzle
9:54 AM 35.6 °F 30.7 °F 30.2 °F 81% 29.87 in 10.0 mi SSW 5.8 mph - N/A Rain Rain
10:14 AM 35.6 °F 28.6 °F 30.2 °F 81% 29.86 in 10.0 mi South 9.2 mph - N/A   Scattered Clouds
10:34 AM 37.4 °F 32.1 °F 32.0 °F 81% 29.87 in 10.0 mi SSW 6.9 mph - N/A   Clear
10:54 AM 37.4 °F 33.8 °F 33.8 °F 87% 29.87 in 7.0 mi SSW 4.6 mph - N/A Rain Light Rain
11:14 AM 37.4 °F 32.8 °F 33.8 °F 87% 29.88 in 7.0 mi SW 5.8 mph - N/A Rain Light Rain
11:34 AM 37.4 °F 32.1 °F 33.8 °F 87% 29.86 in 10.0 mi South 6.9 mph - N/A   Drizzle
11:54 AM 39.2 °F 33.0 °F 35.6 °F 87% 29.83 in 10.0 mi South 9.2 mph - N/A   Clear
12:14 PM 39.2 °F 35.0 °F 35.6 °F 87% 29.82 in 10.0 mi South 5.8 mph - N/A   Clear
12:34 PM 39.2 °F 35.0 °F 35.6 °F 87% 29.81 in 10.0 mi South 5.8 mph - N/A   Clear
12:54 PM 39.2 °F 37.0 °F 35.6 °F 87% 29.82 in 10.0 mi SW 3.5 mph - N/A   Clear
1:14 PM 41.0 °F 38.0 °F 37.4 °F 87% 29.81 in 10.0 mi SSW 4.6 mph - N/A   Scattered Clouds
1:34 PM 42.8 °F 39.3 °F 35.6 °F 76% 29.80 in 10.0 mi South 5.8 mph - N/A   Scattered Clouds
1:54 PM 44.6 °F 39.7 °F 37.4 °F 76% 29.79 in 10.0 mi SSW 9.2 mph - N/A   Clear
2:14 PM 44.6 °F 39.7 °F 37.4 °F 76% 29.79 in 10.0 mi SSW 9.2 mph - N/A   Clear
2:34 PM 46.4 °F 41.9 °F 39.2 °F 76% 29.79 in 10.0 mi SSW 9.2 mph - N/A   Clear
2:54 PM 46.4 °F 42.9 °F 39.2 °F 76% 29.79 in 10.0 mi SSW 6.9 mph - N/A   Clear
3:14 PM 46.4 °F 45.2 °F 39.2 °F 76% 29.79 in 10.0 mi SSW 3.5 mph - N/A   Clear
3:34 PM 46.4 °F 44.3 °F 39.2 °F 76% 29.79 in 10.0 mi SSW 4.6 mph - N/A   Clear
3:54 PM 46.4 °F 41.9 °F 39.2 °F 76% 29.79 in 10.0 mi South 9.2 mph - N/A   Clear
4:14 PM 46.4 °F 41.9 °F 39.2 °F 76% 29.79 in 10.0 mi South 9.2 mph - N/A   Clear
4:34 PM 44.6 °F 39.7 °F 39.2 °F 81% 29.79 in 10.0 mi South 9.2 mph - N/A   Clear
4:54 PM 42.8 °F 37.5 °F 37.4 °F 81% 29.80 in 10.0 mi South 9.2 mph - N/A   Clear
5:14 PM 42.8 °F 37.0 °F 37.4 °F 81% 29.80 in 10.0 mi South 10.4 mph - N/A   Clear
5:34 PM 42.8 °F 37.0 °F 37.4 °F 81% 29.80 in 10.0 mi South 10.4 mph - N/A   Clear
5:54 PM 42.8 °F 36.6 °F 37.4 °F 81% 29.80 in 10.0 mi South 11.5 mph - N/A   Clear
6:14 PM 39.2 °F 32.0 °F 35.6 °F 87% 29.81 in 10.0 mi South 11.5 mph - N/A   Clear
6:34 PM 39.2 °F 33.0 °F 35.6 °F 87% 29.81 in 10.0 mi SSW 9.2 mph - N/A   Clear
6:54 PM 39.2 °F 35.0 °F 35.6 °F 87% 29.82 in 10.0 mi SW 5.8 mph - N/A   Clear
7:14 PM 39.2 °F 33.6 °F 35.6 °F 87% 29.82 in 10.0 mi SW 8.1 mph - N/A   Clear
7:34 PM 37.4 °F 32.1 °F 35.6 °F 93% 29.82 in 10.0 mi SW 6.9 mph - N/A   Clear
7:54 PM 37.4 °F 31.4 °F 35.6 °F 93% 29.83 in 10.0 mi SW 8.1 mph - N/A   Clear
8:14 PM 37.4 °F 31.4 °F 35.6 °F 93% 29.83 in 10.0 mi SW 8.1 mph - N/A   Clear
8:34 PM 37.4 °F 31.4 °F 35.6 °F 93% 29.83 in 10.0 mi SW 8.1 mph - N/A   Clear
8:54 PM 37.4 °F 31.4 °F 33.8 °F 87% 29.83 in 10.0 mi SW 8.1 mph - N/A   Clear
9:14 PM 35.6 °F 30.7 °F 33.8 °F 93% 29.84 in 10.0 mi SW 5.8 mph - N/A   Clear
9:34 PM 35.6 °F 31.7 °F 32.0 °F 87% 29.85 in 10.0 mi WSW 4.6 mph - N/A   Clear
9:54 PM 35.6 °F 31.7 °F 32.0 °F 87% 29.85 in 10.0 mi WSW 4.6 mph - N/A   Clear
10:14 PM 33.8 °F 30.8 °F 30.2 °F 87% 29.85 in 7.0 mi WSW 3.5 mph - N/A   Clear
10:34 PM 33.8 °F 29.6 °F 30.2 °F 87% 29.85 in 10.0 mi WSW 4.6 mph - N/A   Clear
10:54 PM 33.8 °F 29.6 °F 30.2 °F 87% 29.84 in 10.0 mi WSW 4.6 mph - N/A   Clear
11:14 PM 35.6 °F - 30.2 °F 81% 29.84 in 10.0 mi Calm Calm - N/A   Clear
11:34 PM 33.8 °F - 30.2 °F 87% 29.84 in 10.0 mi Calm Calm - N/A   Clear
11:54 PM 35.6 °F - 30.2 °F 81% 29.84 in 10.0 mi Calm Calm - N/A   Clear